Time,TemperatureF,DewpointF,PressureIn,WindDirection,WindDirectionDegrees,WindSpeedMPH,WindSpeedGustMPH,Humidity,HourlyPrecipIn,Conditions,Clouds,dailyrainin,SolarRadiationWatts/m^2,SoftwareType,DateUTC
2013-08-16 00:04:00,60.4,58.7,29.88,ESE,122,0.0,0.0,94,0.00,RA,SKC,0.00,0.0,WeatherDisplay:10.37,2013-08-16 07:04:00,
2013-08-16 00:09:00,60.3,58.6,29.88,ESE,122,0.0,0.0,94,0.00,RA,SKC,0.00,0.0,WeatherDisplay:10.37,2013-08-16 07:09:00,
2013-08-16 00:14:00,60.3,58.6,29.88,ESE,122,0.0,0.0,94,0.00,,SKC,0.00,0.0,WeatherDisplay:10.37,2013-08-16 07:14:00,
2013-08-16 00:20:00,60.3,58.6,29.88,ESE,122,0.0,0.0,94,0.00,,SKC,0.00,0.0,WeatherDisplay:10.37,2013-08-16 07:20:00,
2013-08-16 00:25:00,60.4,58.7,29.88,ESE,123,2.3,2.3,94,0.00,,SKC,0.00,0.0,WeatherDisplay:10.37,2013-08-16 07:25:00,
2013-08-16 00:30:00,60.4,58.7,29.88,SW,215,2.3,2.3,94,0.00,,SKC,0.00,0.0,WeatherDisplay:10.37,2013-08-16 07:30:00,
2013-08-16 00:35:00,60.5,58.8,29.88,SW,215,2.3,2.3,94,0.00,,SKC,0.00,0.0,WeatherDisplay:10.37,2013-08-16 07:35:00,
2013-08-16 00:40:00,60.4,58.7,29.88,SW,215,3.0,3.0,94,0.00,,SKC,0.00,0.0,WeatherDisplay:10.37,2013-08-16 07:40:00,
2013-08-16 00:45:00,60.5,58.8,29.88,SW,215,3.0,3.0,94,0.00,,SKC,0.00,0.0,WeatherDisplay:10.37,2013-08-16 07:45:00,
2013-08-16 00:50:00,60.4,58.7,29.88,SW,215,1.2,1.2,94,0.00,,SKC,0.00,0.0,WeatherDisplay:10.37,2013-08-16 07:50:00,
2013-08-16 00:55:00,60.4,58.7,29.88,SW,215,1.2,0.0,94,0.00,,SKC,0.00,0.0,WeatherDisplay:10.37,2013-08-16 07:55:00,
2013-08-16 01:00:00,60.4,58.7,29.88,SW,215,0.0,0.0,94,0.00,,SKC,0.00,0.0,WeatherDisplay:10.37,2013-08-16 08:00:00,
2013-08-16 01:05:00,60.4,58.7,29.88,SW,215,0.0,0.0,94,0.00,,SKC,0.00,0.0,WeatherDisplay:10.37,2013-08-16 08:05:00,
2013-08-16 01:10:00,60.4,58.7,29.88,SW,215,0.0,0.0,94,0.00,,SKC,0.00,0.0,WeatherDisplay:10.37,2013-08-16 08:10:00,
2013-08-16 01:15:00,60.4,58.7,29.87,SW,215,0.0,0.0,94,0.00,,SKC,0.00,0.0,WeatherDisplay:10.37,2013-08-16 08:15:00,
2013-08-16 01:20:00,60.3,58.6,29.87,SW,215,0.0,0.0,94,0.00,,SKC,0.00,0.0,WeatherDisplay:10.37,2013-08-16 08:20:00,
2013-08-16 01:25:00,60.3,58.6,29.87,SW,215,2.3,0.0,94,0.00,,SKC,0.00,0.0,WeatherDisplay:10.37,2013-08-16 08:25:00,
2013-08-16 01:30:00,60.3,58.6,29.87,SW,215,0.0,0.0,94,0.00,,SKC,0.00,0.0,WeatherDisplay:10.37,2013-08-16 08:30:00,
2013-08-16 01:35:00,60.2,58.5,29.87,SW,215,0.0,0.0,94,0.00,,SKC,0.00,0.0,WeatherDisplay:10.37,2013-08-16 08:35:00,
2013-08-16 01:40:00,60.2,58.5,29.87,SW,215,0.0,0.0,94,0.00,,SKC,0.00,0.0,WeatherDisplay:10.37,2013-08-16 08:40:00,
2013-08-16 01:45:00,60.0,58.3,29.87,SW,215,0.0,0.0,94,0.00,,SKC,0.00,0.0,WeatherDisplay:10.37,2013-08-16 08:45:00,
2013-08-16 01:50:00,60.0,58.3,29.87,SW,215,0.0,0.0,94,0.00,,SKC,0.00,0.0,WeatherDisplay:10.37,2013-08-16 08:50:00,
2013-08-16 01:55:00,59.8,58.1,29.87,SW,215,3.5,3.5,94,0.00,,SKC,0.00,0.0,WeatherDisplay:10.37,2013-08-16 08:55:00,
2013-08-16 02:00:00,59.6,57.9,29.87,SW,215,1.2,1.2,94,0.00,,SKC,0.00,0.0,WeatherDisplay:10.37,2013-08-16 09:00:00,
2013-08-16 02:05:00,59.6,57.9,29.87,SW,215,0.0,0.0,94,0.00,,SKC,0.00,0.0,WeatherDisplay:10.37,2013-08-16 09:05:00,
2013-08-16 02:10:00,59.5,57.8,29.87,SW,215,0.0,0.0,94,0.00,,SKC,0.00,0.0,WeatherDisplay:10.37,2013-08-16 09:10:00,
2013-08-16 02:15:00,59.4,57.7,29.86,SW,215,0.0,0.0,94,0.00,,SKC,0.00,0.0,WeatherDisplay:10.37,2013-08-16 09:15:00,
2013-08-16 02:20:00,59.4,57.7,29.86,SW,215,0.0,0.0,94,0.00,,SKC,0.00,0.0,WeatherDisplay:10.37,2013-08-16 09:20:00,
2013-08-16 02:25:00,59.4,57.7,29.86,SW,215,0.0,0.0,94,0.00,,SKC,0.00,0.0,WeatherDisplay:10.37,2013-08-16 09:25:00,
2013-08-16 02:30:00,59.3,57.6,29.86,SW,215,0.0,0.0,94,0.00,,SKC,0.00,0.0,WeatherDisplay:10.37,2013-08-16 09:30:00,
2013-08-16 02:35:00,59.1,57.4,29.86,SW,215,0.0,0.0,94,0.00,,SKC,0.00,0.0,WeatherDisplay:10.37,2013-08-16 09:35:00,
2013-08-16 02:40:00,59.1,57.4,29.86,SW,215,0.0,0.0,94,0.00,,SKC,0.00,0.0,WeatherDisplay:10.37,2013-08-16 09:40:00,
2013-08-16 02:45:00,59.0,57.3,29.86,SW,215,0.0,0.0,94,0.00,,SKC,0.00,0.0,WeatherDisplay:10.37,2013-08-16 09:45:00,
2013-08-16 02:50:00,58.8,57.1,29.86,SW,215,0.0,0.0,94,0.00,,SKC,0.00,0.0,WeatherDisplay:10.37,2013-08-16 09:50:00,
2013-08-16 02:55:00,58.7,57.0,29.86,SW,215,0.0,0.0,94,0.00,,SKC,0.00,0.0,WeatherDisplay:10.37,2013-08-16 09:55:00,
2013-08-16 03:00:00,58.8,57.1,29.86,SW,215,0.0,0.0,94,0.00,,SKC,0.00,0.0,WeatherDisplay:10.37,2013-08-16 10:00:00,
2013-08-16 03:05:00,58.8,57.1,29.86,SW,215,0.0,0.0,94,0.00,,SKC,0.00,0.0,WeatherDisplay:10.37,2013-08-16 10:05:00,
2013-08-16 03:10:00,58.8,57.1,29.86,SW,215,0.0,0.0,94,0.00,,SKC,0.00,0.0,WeatherDisplay:10.37,2013-08-16 10:10:00,
2013-08-16 03:15:00,58.6,56.9,29.86,SW,215,0.0,0.0,94,0.00,,SKC,0.00,0.0,WeatherDisplay:10.37,2013-08-16 10:15:00,
2013-08-16 03:20:00,58.5,56.8,29.86,SW,215,0.0,0.0,94,0.00,,SKC,0.00,0.0,WeatherDisplay:10.37,2013-08-16 10:20:00,
2013-08-16 03:25:00,58.7,56.9,29.86,SSW,193,1.0,3.0,94,0.00,,SKC,0.00,0.0,WeatherDisplay:10.37,2013-08-16 10:25:00,
2013-08-16 03:30:00,58.9,57.2,29.86,SE,132,2.3,2.3,94,0.00,,SKC,0.00,0.0,WeatherDisplay:10.37,2013-08-16 10:30:00,
2013-08-16 03:35:00,59.0,57.3,29.86,ENE,69,2.0,2.1,94,0.00,,SKC,0.00,0.0,WeatherDisplay:10.37,2013-08-16 10:35:00,
2013-08-16 03:40:00,59.1,57.4,29.86,ENE,70,3.5,3.5,94,0.00,,SKC,0.00,0.0,WeatherDisplay:10.37,2013-08-16 10:40:00,
2013-08-16 03:45:00,59.2,57.5,29.86,ENE,70,1.2,0.0,94,0.00,,SKC,0.00,0.0,WeatherDisplay:10.37,2013-08-16 10:45:00,
2013-08-16 03:50:00,59.3,57.6,29.86,ENE,70,2.3,2.3,94,0.00,,SKC,0.00,0.0,WeatherDisplay:10.37,2013-08-16 10:50:00,
2013-08-16 03:55:00,59.2,57.5,29.86,ENE,70,1.0,3.0,94,0.00,,SKC,0.00,0.0,WeatherDisplay:10.37,2013-08-16 10:55:00,
2013-08-16 04:00:00,59.1,57.4,29.86,ENE,69,3.5,3.5,94,0.00,,SKC,0.00,0.0,WeatherDisplay:10.37,2013-08-16 11:00:00,
2013-08-16 04:05:00,59.0,57.3,29.86,ENE,64,2.0,5.0,94,0.00,,SKC,0.00,0.0,WeatherDisplay:10.37,2013-08-16 11:05:00,
2013-08-16 04:10:00,58.9,57.2,29.86,ENE,67,3.5,3.5,94,0.00,,SKC,0.00,0.0,WeatherDisplay:10.37,2013-08-16 11:10:00,
2013-08-16 04:15:00,59.0,57.3,29.86,ENE,67,3.5,3.5,94,0.00,,SKC,0.00,0.0,WeatherDisplay:10.37,2013-08-16 11:15:00,
2013-08-16 04:20:00,59.1,57.4,29.86,SE,134,4.6,4.6,94,0.00,,SKC,0.00,0.0,WeatherDisplay:10.37,2013-08-16 11:20:00,
2013-08-16 04:25:00,58.9,57.2,29.86,SE,132,0.0,3.0,94,0.00,,SKC,0.00,0.0,WeatherDisplay:10.37,2013-08-16 11:25:00,
2013-08-16 04:30:00,58.8,57.1,29.87,SE,134,2.0,2.8,94,0.01,RA,SKC,0.01,0.0,WeatherDisplay:10.37,2013-08-16 11:30:00,
2013-08-16 04:35:00,58.7,56.9,29.87,SE,134,1.0,5.0,94,0.00,RA,SKC,0.01,0.0,WeatherDisplay:10.37,2013-08-16 11:35:00,
2013-08-16 04:40:00,58.4,56.7,29.87,SE,134,2.3,0.0,94,0.01,,SKC,0.01,0.0,WeatherDisplay:10.37,2013-08-16 11:40:00,
2013-08-16 04:45:00,58.2,56.5,29.87,SE,134,0.0,0.0,94,0.01,,SKC,0.01,0.0,WeatherDisplay:10.37,2013-08-16 11:45:00,
2013-08-16 04:50:00,58.1,56.4,29.87,SE,134,1.2,0.0,94,0.01,,SKC,0.01,0.0,WeatherDisplay:10.37,2013-08-16 11:50:00,
2013-08-16 04:55:00,58.1,56.4,29.87,SE,134,0.0,0.0,94,0.01,,SKC,0.01,0.0,WeatherDisplay:10.37,2013-08-16 11:55:00,
2013-08-16 05:00:00,58.0,56.3,29.87,SE,134,0.0,0.0,94,0.01,,SKC,0.01,0.0,WeatherDisplay:10.37,2013-08-16 12:00:00,
2013-08-16 05:05:00,57.7,56.0,29.87,SE,134,1.2,1.2,94,0.01,,SKC,0.01,0.0,WeatherDisplay:10.37,2013-08-16 12:05:00,
2013-08-16 05:10:00,57.6,55.9,29.87,SE,134,2.3,0.0,94,0.01,,SKC,0.01,0.0,WeatherDisplay:10.37,2013-08-16 12:10:00,
2013-08-16 05:15:00,57.6,55.9,29.87,SE,134,0.0,0.0,94,0.01,,SKC,0.01,0.0,WeatherDisplay:10.37,2013-08-16 12:15:00,
2013-08-16 05:20:00,57.5,55.8,29.87,SE,134,1.2,1.2,94,0.01,,SKC,0.01,0.0,WeatherDisplay:10.37,2013-08-16 12:20:00,
2013-08-16 05:25:00,57.4,55.7,29.87,SE,134,0.0,0.0,94,0.01,,SKC,0.01,0.0,WeatherDisplay:10.37,2013-08-16 12:25:00,
2013-08-16 05:30:00,57.4,55.7,29.87,SE,134,0.0,0.0,94,0.00,,SKC,0.01,0.0,WeatherDisplay:10.37,2013-08-16 12:30:00,
2013-08-16 05:35:00,57.4,55.7,29.87,SE,134,0.0,0.0,94,0.00,,SKC,0.01,0.0,WeatherDisplay:10.37,2013-08-16 12:35:00,
2013-08-16 05:40:00,57.4,55.7,29.87,SE,134,0.0,0.0,94,0.00,,SKC,0.01,0.0,WeatherDisplay:10.37,2013-08-16 12:40:00,
2013-08-16 05:45:00,57.3,55.6,29.87,SE,134,0.0,0.0,94,0.00,,SKC,0.01,0.0,WeatherDisplay:10.37,2013-08-16 12:45:00,
2013-08-16 05:50:00,57.3,55.6,29.87,SE,134,0.0,0.0,94,0.00,,SKC,0.01,0.0,WeatherDisplay:10.37,2013-08-16 12:50:00,
2013-08-16 05:55:00,57.3,55.6,29.87,SE,134,0.0,0.0,94,0.00,,SKC,0.01,0.0,WeatherDisplay:10.37,2013-08-16 12:55:00,
2013-08-16 06:00:00,57.3,55.6,29.87,SE,134,0.0,0.0,94,0.00,OVC,SKC,0.01,0.0,WeatherDisplay:10.37,2013-08-16 13:00:00,
2013-08-16 06:05:00,57.3,55.6,29.87,SE,134,0.0,0.0,94,0.00,OVC,SKC,0.01,0.0,WeatherDisplay:10.37,2013-08-16 13:05:00,
2013-08-16 06:10:00,57.2,55.5,29.87,SE,134,0.0,0.0,94,0.00,OVC,SKC,0.01,0.0,WeatherDisplay:10.37,2013-08-16 13:10:00,
2013-08-16 06:15:00,57.2,55.5,29.87,SE,134,0.0,0.0,94,0.00,OVC,SKC,0.01,0.0,WeatherDisplay:10.37,2013-08-16 13:15:00,
2013-08-16 06:20:00,57.2,55.5,29.87,SE,134,0.0,0.0,94,0.00,OVC,SKC,0.01,0.0,WeatherDisplay:10.37,2013-08-16 13:20:00,
2013-08-16 06:25:00,57.2,55.5,29.87,SE,134,0.0,0.1,94,0.00,OVC,SKC,0.01,0.0,WeatherDisplay:10.37,2013-08-16 13:25:00,
2013-08-16 06:30:00,57.1,55.4,29.88,SE,134,0.0,0.0,94,0.00,OVC,SKC,0.01,5.0,WeatherDisplay:10.37,2013-08-16 13:30:00,
2013-08-16 06:35:00,57.0,55.3,29.88,SE,134,0.0,0.0,94,0.00,OVC,SKC,0.01,7.0,WeatherDisplay:10.37,2013-08-16 13:35:00,
2013-08-16 06:40:00,56.9,55.2,29.88,SE,134,0.0,0.0,94,0.00,OVC,SKC,0.01,11.0,WeatherDisplay:10.37,2013-08-16 13:40:00,
2013-08-16 06:45:00,56.8,55.1,29.88,SE,134,0.0,0.0,94,0.00,OVC,SKC,0.01,14.0,WeatherDisplay:10.37,2013-08-16 13:45:00,
2013-08-16 06:50:00,56.8,55.1,29.88,SE,134,0.0,0.0,94,0.00,OVC,SKC,0.01,21.0,WeatherDisplay:10.37,2013-08-16 13:50:00,
2013-08-16 06:55:00,56.8,55.1,29.88,SE,134,0.0,0.0,94,0.00,OVC,SKC,0.01,30.0,WeatherDisplay:10.37,2013-08-16 13:55:00,
2013-08-16 07:00:00,56.8,55.1,29.88,SE,134,0.0,0.0,94,0.00,OVC,SKC,0.01,19.0,WeatherDisplay:10.37,2013-08-16 14:00:00,
2013-08-16 07:05:00,56.8,55.1,29.88,SE,134,0.0,0.0,94,0.00,OVC,SKC,0.01,32.0,WeatherDisplay:10.37,2013-08-16 14:05:00,
2013-08-16 07:10:00,56.8,55.1,29.88,SE,134,0.0,0.0,94,0.00,OVC,SKC,0.01,28.0,WeatherDisplay:10.37,2013-08-16 14:10:00,
2013-08-16 07:15:00,56.8,55.1,29.89,SE,134,0.0,0.0,94,0.00,OVC,SKC,0.01,30.0,WeatherDisplay:10.37,2013-08-16 14:15:00,
2013-08-16 07:20:00,56.9,55.2,29.89,SE,134,0.0,0.0,94,0.00,OVC,SKC,0.01,49.0,WeatherDisplay:10.37,2013-08-16 14:20:00,
2013-08-16 07:25:00,57.0,55.3,29.89,SE,134,0.0,2.0,94,0.00,OVC,SKC,0.01,46.0,WeatherDisplay:10.37,2013-08-16 14:25:00,
2013-08-16 07:30:00,57.0,55.3,29.89,SE,134,1.2,1.2,94,0.00,OVC,SKC,0.01,49.0,WeatherDisplay:10.37,2013-08-16 14:30:00,
2013-08-16 07:35:00,57.0,55.3,29.89,SE,134,1.0,4.0,94,0.00,OVC,SKC,0.01,72.0,WeatherDisplay:10.37,2013-08-16 14:35:00,
2013-08-16 07:44:00,56.8,55.1,29.89,SE,128,3.5,3.5,94,0.00,OVC,SKC,0.01,88.0,WeatherDisplay:10.37,2013-08-16 14:44:00,
2013-08-16 07:49:00,56.8,55.1,29.89,SE,128,3.5,3.5,94,0.00,OVC,SKC,0.01,105.0,WeatherDisplay:10.37,2013-08-16 14:49:00,
2013-08-16 07:54:00,56.7,55.0,29.89,SE,128,2.3,2.3,94,0.00,OVC,SKC,0.01,109.0,WeatherDisplay:10.37,2013-08-16 14:54:00,
2013-08-16 07:59:00,56.5,54.8,29.90,SE,127,2.3,2.3,94,0.00,OVC,SKC,0.01,121.0,WeatherDisplay:10.37,2013-08-16 14:59:00,
2013-08-16 08:04:00,56.4,54.7,29.90,ESE,112,3.5,3.5,94,0.00,OVC,SKC,0.01,130.0,WeatherDisplay:10.37,2013-08-16 15:04:00,
2013-08-16 08:09:00,56.6,54.9,29.90,ESE,112,2.3,0.0,94,0.00,OVC,SKC,0.01,134.0,WeatherDisplay:10.37,2013-08-16 15:09:00,
2013-08-16 08:15:00,56.5,54.8,29.90,ESE,121,3.5,3.5,94,0.00,OVC,SKC,0.01,158.0,WeatherDisplay:10.37,2013-08-16 15:15:00,
2013-08-16 08:20:00,56.3,54.6,29.90,ESE,119,4.0,4.0,94,0.00,OVC,SKC,0.01,179.0,WeatherDisplay:10.37,2013-08-16 15:20:00,
2013-08-16 08:25:00,56.6,54.9,29.90,ESE,120,4.0,4.0,94,0.00,OVC,SKC,0.01,192.0,WeatherDisplay:10.37,2013-08-16 15:25:00,
2013-08-16 08:30:00,56.6,54.9,29.90,ESE,120,2.3,2.3,94,0.00,OVC,SKC,0.01,186.0,WeatherDisplay:10.37,2013-08-16 15:30:00,
2013-08-16 08:35:00,56.7,55.0,29.90,ESE,120,1.2,0.0,94,0.00,OVC,SKC,0.01,255.0,WeatherDisplay:10.37,2013-08-16 15:35:00,
2013-08-16 08:40:00,56.6,54.9,29.90,ESE,121,3.5,3.5,94,0.00,OVC,SKC,0.01,329.0,WeatherDisplay:10.37,2013-08-16 15:40:00,
2013-08-16 08:45:00,57.1,55.4,29.90,ESE,121,2.3,2.3,94,0.00,OVC,SKC,0.01,360.0,WeatherDisplay:10.37,2013-08-16 15:45:00,
2013-08-16 08:50:00,57.4,55.7,29.90,ESE,121,0.0,0.0,94,0.00,OVC,SKC,0.01,399.0,WeatherDisplay:10.37,2013-08-16 15:50:00,
2013-08-16 08:55:00,57.8,56.1,29.90,ESE,121,1.2,1.2,94,0.00,OVC,SKC,0.01,390.0,WeatherDisplay:10.37,2013-08-16 15:55:00,
2013-08-16 09:00:00,57.9,56.2,29.90,ESE,121,0.0,0.2,94,0.00,OVC,SKC,0.01,408.0,WeatherDisplay:10.37,2013-08-16 16:00:00,
2013-08-16 09:05:00,58.1,56.4,29.90,ESE,121,2.3,2.3,94,0.00,OVC,SKC,0.01,422.0,WeatherDisplay:10.37,2013-08-16 16:05:00,
2013-08-16 09:10:00,57.9,56.2,29.90,SE,124,2.3,2.3,94,0.00,OVC,SKC,0.01,255.0,WeatherDisplay:10.37,2013-08-16 16:10:00,
2013-08-16 09:15:00,58.1,56.4,29.90,SE,124,2.3,2.3,94,0.00,OVC,SKC,0.01,454.0,WeatherDisplay:10.37,2013-08-16 16:15:00,
2013-08-16 09:20:00,58.4,56.7,29.90,SE,124,1.0,1.0,94,0.00,OVC,SKC,0.01,475.0,WeatherDisplay:10.37,2013-08-16 16:20:00,
2013-08-16 09:25:00,58.4,56.7,29.90,SE,125,3.5,3.5,94,0.00,OVC,SKC,0.01,485.0,WeatherDisplay:10.37,2013-08-16 16:25:00,
2013-08-16 09:30:00,58.2,56.5,29.90,ESE,123,4.6,4.6,94,0.00,OVC,SKC,0.01,471.0,WeatherDisplay:10.37,2013-08-16 16:30:00,
2013-08-16 09:35:00,58.2,56.5,29.90,ESE,117,4.6,4.6,94,0.00,OVC,SKC,0.01,506.0,WeatherDisplay:10.37,2013-08-16 16:35:00,
2013-08-16 09:40:00,58.6,56.9,29.90,SE,127,4.6,4.6,94,0.00,OVC,SKC,0.01,504.0,WeatherDisplay:10.37,2013-08-16 16:40:00,
2013-08-16 09:45:00,58.7,57.0,29.90,SE,142,2.3,2.3,94,0.00,OVC,SKC,0.01,536.0,WeatherDisplay:10.37,2013-08-16 16:45:00,
2013-08-16 09:50:00,59.0,57.3,29.90,SE,142,2.3,2.3,94,0.00,OVC,SKC,0.01,531.0,WeatherDisplay:10.37,2013-08-16 16:50:00,
2013-08-16 09:55:00,59.3,57.6,29.90,SSE,155,4.0,4.0,94,0.00,OVC,SKC,0.01,557.0,WeatherDisplay:10.37,2013-08-16 16:55:00,
2013-08-16 10:00:00,59.3,57.6,29.90,SSE,152,4.0,4.0,94,0.00,OVC,SKC,0.01,570.0,WeatherDisplay:10.37,2013-08-16 17:00:00,
2013-08-16 10:05:00,59.5,57.8,29.90,SSE,155,3.5,3.5,94,0.00,OVC,SKC,0.01,585.0,WeatherDisplay:10.37,2013-08-16 17:05:00,
2013-08-16 10:10:00,60.0,58.3,29.90,SSE,150,4.6,4.6,94,0.00,OVC,SKC,0.01,596.0,WeatherDisplay:10.37,2013-08-16 17:10:00,
2013-08-16 10:15:00,60.1,58.4,29.91,SSE,157,4.6,4.6,94,0.00,OVC,SKC,0.01,612.0,WeatherDisplay:10.37,2013-08-16 17:15:00,
2013-08-16 10:20:00,60.1,58.4,29.91,SE,146,6.0,6.0,94,0.00,OVC,SKC,0.01,652.0,WeatherDisplay:10.37,2013-08-16 17:20:00,
2013-08-16 10:25:00,59.9,58.2,29.91,SSE,150,4.6,4.6,94,0.00,OVC,SKC,0.01,636.0,WeatherDisplay:10.37,2013-08-16 17:25:00,
2013-08-16 10:30:00,59.9,58.2,29.91,SE,140,4.6,4.6,94,0.00,OVC,SKC,0.01,608.0,WeatherDisplay:10.37,2013-08-16 17:30:00,
2013-08-16 10:35:00,60.3,58.6,29.91,ESE,122,5.0,5.0,94,0.00,OVC,SKC,0.01,584.0,WeatherDisplay:10.37,2013-08-16 17:35:00,
2013-08-16 10:40:00,60.2,58.2,29.91,SSE,157,5.8,5.8,93,0.00,OVC,SKC,0.01,707.0,WeatherDisplay:10.37,2013-08-16 17:40:00,
2013-08-16 10:45:00,60.5,58.5,29.91,SSE,165,6.0,6.0,93,0.00,OVC,SKC,0.01,731.0,WeatherDisplay:10.37,2013-08-16 17:45:00,
2013-08-16 10:50:00,61.1,59.1,29.91,SSE,162,3.0,6.0,93,0.00,OVC,SKC,0.01,733.0,WeatherDisplay:10.37,2013-08-16 17:50:00,
2013-08-16 10:55:00,61.3,58.9,29.91,South,176,3.0,6.0,92,0.00,OVC,SKC,0.01,738.0,WeatherDisplay:10.37,2013-08-16 17:55:00,
2013-08-16 11:00:00,61.6,59.6,29.91,SE,130,3.5,3.5,93,0.00,OVC,SKC,0.01,726.0,WeatherDisplay:10.37,2013-08-16 18:00:00,
2013-08-16 11:05:00,61.9,59.2,29.91,SSE,153,6.9,6.9,91,0.00,OVC,SKC,0.01,733.0,WeatherDisplay:10.37,2013-08-16 18:05:00,
2013-08-16 11:10:00,62.5,60.1,29.91,SSE,163,3.5,3.5,92,0.00,OVC,SKC,0.01,751.0,WeatherDisplay:10.37,2013-08-16 18:10:00,
2013-08-16 11:15:00,62.6,60.2,29.91,SSW,199,4.6,4.6,92,0.00,OVC,SKC,0.01,770.0,WeatherDisplay:10.37,2013-08-16 18:15:00,
2013-08-16 11:20:00,62.2,59.5,29.91,South,178,5.8,5.8,91,0.00,OVC,SKC,0.01,729.0,WeatherDisplay:10.37,2013-08-16 18:20:00,
2013-08-16 11:25:00,62.3,59.6,29.91,SSW,193,5.0,7.0,91,0.00,OVC,SKC,0.01,786.0,WeatherDisplay:10.37,2013-08-16 18:25:00,
2013-08-16 11:30:00,62.2,59.5,29.91,South,189,4.6,4.6,91,0.00,OVC,SKC,0.01,802.0,WeatherDisplay:10.37,2013-08-16 18:30:00,
2013-08-16 11:35:00,62.8,60.2,29.91,South,177,3.0,6.0,91,0.00,OVC,SKC,0.01,789.0,WeatherDisplay:10.37,2013-08-16 18:35:00,
2013-08-16 11:40:00,63.3,60.3,29.91,SSW,202,4.6,4.6,90,0.00,OVC,SKC,0.01,795.0,WeatherDisplay:10.37,2013-08-16 18:40:00,
2013-08-16 11:45:00,63.6,60.6,29.91,South,190,3.5,3.5,90,0.00,OVC,SKC,0.01,802.0,WeatherDisplay:10.37,2013-08-16 18:45:00,
2013-08-16 11:50:00,64.5,61.5,29.91,SW,224,3.5,3.5,90,0.00,OVC,SKC,0.01,809.0,WeatherDisplay:10.37,2013-08-16 18:50:00,
2013-08-16 11:55:00,64.9,61.3,29.91,South,191,6.9,6.9,88,0.00,OVC,SKC,0.01,817.0,WeatherDisplay:10.37,2013-08-16 18:55:00,
2013-08-16 12:00:00,64.4,60.5,29.90,SSW,203,6.0,8.0,87,0.00,OVC,SKC,0.01,823.0,WeatherDisplay:10.37,2013-08-16 19:00:00,
2013-08-16 12:05:00,64.0,60.7,29.90,SW,219,5.0,8.0,89,0.00,OVC,SKC,0.01,828.0,WeatherDisplay:10.37,2013-08-16 19:05:00,
2013-08-16 12:10:00,64.1,60.5,29.90,SW,219,5.8,5.8,88,0.00,OVC,SKC,0.01,835.0,WeatherDisplay:10.37,2013-08-16 19:10:00,
2013-08-16 12:15:00,64.2,60.3,29.90,SW,233,6.0,8.0,87,0.00,OVC,SKC,0.01,842.0,WeatherDisplay:10.37,2013-08-16 19:15:00,
2013-08-16 12:20:00,64.4,60.4,29.90,WSW,241,8.1,8.1,87,0.00,OVC,SKC,0.01,846.0,WeatherDisplay:10.37,2013-08-16 19:20:00,
2013-08-16 12:25:00,64.5,60.9,29.90,WSW,239,3.0,9.0,88,0.00,OVC,SKC,0.01,847.0,WeatherDisplay:10.37,2013-08-16 19:25:00,
2013-08-16 12:30:00,65.6,61.9,29.90,SW,232,6.0,6.0,88,0.00,OVC,SKC,0.01,854.0,WeatherDisplay:10.37,2013-08-16 19:30:00,
2013-08-16 12:35:00,66.1,62.2,29.90,SW,233,5.0,9.0,87,0.00,OVC,SKC,0.01,858.0,WeatherDisplay:10.37,2013-08-16 19:35:00,
2013-08-16 12:40:00,67.2,62.9,29.90,WSW,240,6.9,6.9,86,0.00,OVC,SKC,0.01,861.0,WeatherDisplay:10.37,2013-08-16 19:40:00,
2013-08-16 12:45:00,68.4,63.4,29.90,SW,223,5.0,5.0,84,0.00,OVC,SKC,0.01,865.0,WeatherDisplay:10.37,2013-08-16 19:45:00,
2013-08-16 12:50:00,69.0,63.6,29.90,SW,221,5.8,5.8,83,0.00,OVC,SKC,0.01,867.0,WeatherDisplay:10.37,2013-08-16 19:50:00,
2013-08-16 12:55:00,69.3,63.9,29.90,SW,236,5.0,7.0,83,0.00,OVC,SKC,0.01,868.0,WeatherDisplay:10.37,2013-08-16 19:55:00,
2013-08-16 13:00:00,69.7,63.9,29.90,WSW,244,5.0,6.0,82,0.00,OVC,SKC,0.01,868.0,WeatherDisplay:10.37,2013-08-16 20:00:00,
2013-08-16 13:05:00,70.3,64.2,29.90,WSW,237,5.0,5.0,81,0.00,OVC,SKC,0.01,872.0,WeatherDisplay:10.37,2013-08-16 20:05:00,
2013-08-16 13:10:00,70.2,63.7,29.90,WSW,238,5.0,6.0,80,0.00,OVC,SKC,0.01,875.0,WeatherDisplay:10.37,2013-08-16 20:10:00,
2013-08-16 13:15:00,70.5,64.1,29.89,SW,227,3.0,6.0,80,0.00,OVC,SKC,0.01,875.0,WeatherDisplay:10.37,2013-08-16 20:15:00,
2013-08-16 13:20:00,71.3,64.1,29.89,WSW,237,4.0,4.5,78,0.00,OVC,SKC,0.01,875.0,WeatherDisplay:10.37,2013-08-16 20:20:00,
2013-08-16 13:25:00,71.3,63.7,29.89,SSW,213,4.6,4.6,77,0.00,OVC,SKC,0.01,875.0,WeatherDisplay:10.37,2013-08-16 20:25:00,
2013-08-16 13:30:00,71.7,64.1,29.89,SSW,209,3.5,3.5,77,0.00,OVC,SKC,0.01,874.0,WeatherDisplay:10.37,2013-08-16 20:30:00,
2013-08-16 13:35:00,72.4,64.4,29.89,SSW,208,1.0,5.0,76,0.00,OVC,SKC,0.01,875.0,WeatherDisplay:10.37,2013-08-16 20:35:00,
2013-08-16 13:40:00,72.9,64.1,29.89,ESE,115,5.0,5.0,74,0.00,OVC,SKC,0.01,872.0,WeatherDisplay:10.37,2013-08-16 20:40:00,
2013-08-16 13:45:00,72.2,64.2,29.88,SE,138,3.5,3.5,76,0.00,OVC,SKC,0.01,868.0,WeatherDisplay:10.37,2013-08-16 20:45:00,
2013-08-16 13:50:00,71.8,63.4,29.88,SSE,167,4.6,4.6,75,0.00,OVC,SKC,0.01,870.0,WeatherDisplay:10.37,2013-08-16 20:50:00,
2013-08-16 13:55:00,71.8,63.5,29.88,SSE,168,5.0,6.0,75,0.00,OVC,SKC,0.01,865.0,WeatherDisplay:10.37,2013-08-16 20:55:00,
2013-08-16 14:00:00,70.6,63.4,29.88,SE,128,5.0,5.0,78,0.00,OVC,SKC,0.01,863.0,WeatherDisplay:10.37,2013-08-16 21:00:00,
2013-08-16 14:05:00,70.1,63.3,29.88,SE,146,5.8,5.8,79,0.00,OVC,SKC,0.01,860.0,WeatherDisplay:10.37,2013-08-16 21:05:00,
2013-08-16 14:10:00,70.3,63.5,29.88,ESE,105,4.6,4.6,79,0.00,OVC,SKC,0.01,856.0,WeatherDisplay:10.37,2013-08-16 21:10:00,
2013-08-16 14:15:00,70.1,62.9,29.88,ESE,116,5.8,5.8,78,0.00,OVC,SKC,0.01,854.0,WeatherDisplay:10.37,2013-08-16 21:15:00,
2013-08-16 14:20:00,69.9,62.7,29.88,SSE,158,3.5,3.5,78,0.00,OVC,SKC,0.01,851.0,WeatherDisplay:10.37,2013-08-16 21:20:00,
2013-08-16 14:25:00,70.0,63.5,29.88,SSE,148,3.0,6.0,80,0.00,OVC,SKC,0.01,847.0,WeatherDisplay:10.37,2013-08-16 21:25:00,
2013-08-16 14:30:00,70.1,63.3,29.88,SE,136,2.0,5.0,79,0.00,BKN,SKC,0.01,842.0,WeatherDisplay:10.37,2013-08-16 21:30:00,
2013-08-16 14:35:00,70.2,63.4,29.88,SE,139,2.0,5.0,79,0.00,CLR,SKC,0.01,830.0,WeatherDisplay:10.37,2013-08-16 21:35:00,
2013-08-16 14:40:00,70.3,63.8,29.88,SE,130,4.0,4.0,80,0.00,CLR,SKC,0.01,826.0,WeatherDisplay:10.37,2013-08-16 21:40:00,
2013-08-16 14:45:00,70.4,63.9,29.87,SSE,150,2.3,2.3,80,0.00,CLR,SKC,0.01,817.0,WeatherDisplay:10.37,2013-08-16 21:45:00,
2013-08-16 14:50:00,70.3,63.5,29.87,ESE,122,6.9,6.9,79,0.00,CLR,SKC,0.01,809.0,WeatherDisplay:10.37,2013-08-16 21:50:00,
2013-08-16 14:55:00,70.5,63.7,29.87,SE,129,6.0,7.0,79,0.00,CLR,SKC,0.01,803.0,WeatherDisplay:10.37,2013-08-16 21:55:00,
2013-08-16 15:00:00,70.2,63.4,29.86,SE,124,6.9,6.9,79,0.00,CLR,SKC,0.01,795.0,WeatherDisplay:10.37,2013-08-16 22:00:00,
2013-08-16 15:05:00,70.4,63.6,29.86,East,90,4.6,4.6,79,0.00,CLR,SKC,0.01,788.0,WeatherDisplay:10.37,2013-08-16 22:05:00,
2013-08-16 15:10:00,70.5,63.3,29.86,ESE,119,4.6,4.6,78,0.00,CLR,SKC,0.01,779.0,WeatherDisplay:10.37,2013-08-16 22:10:00,
2013-08-16 15:15:00,70.7,63.5,29.86,ESE,104,2.0,7.0,78,0.00,CLR,SKC,0.01,772.0,WeatherDisplay:10.37,2013-08-16 22:15:00,
2013-08-16 15:20:00,70.6,63.4,29.86,ENE,76,6.9,6.9,78,0.00,CLR,SKC,0.01,761.0,WeatherDisplay:10.37,2013-08-16 22:20:00,
2013-08-16 15:25:00,70.2,62.6,29.86,ESE,105,6.0,7.0,77,0.00,CLR,SKC,0.01,751.0,WeatherDisplay:10.37,2013-08-16 22:25:00,
2013-08-16 15:30:00,70.2,63.0,29.85,East,84,5.8,5.8,78,0.00,CLR,SKC,0.01,740.0,WeatherDisplay:10.37,2013-08-16 22:30:00,
2013-08-16 15:35:00,70.3,63.1,29.85,East,81,5.8,5.8,78,0.00,CLR,SKC,0.01,731.0,WeatherDisplay:10.37,2013-08-16 22:35:00,
2013-08-16 15:40:00,70.1,62.2,29.85,NE,36,8.1,8.1,76,0.00,CLR,SKC,0.01,721.0,WeatherDisplay:10.37,2013-08-16 22:40:00,
2013-08-16 15:45:00,69.7,62.2,29.85,ENE,61,6.0,10.0,77,0.00,CLR,SKC,0.01,707.0,WeatherDisplay:10.37,2013-08-16 22:45:00,
2013-08-16 15:50:00,69.8,61.9,29.85,NE,51,8.1,8.1,76,0.00,CLR,SKC,0.01,696.0,WeatherDisplay:10.37,2013-08-16 22:50:00,
2013-08-16 15:55:00,68.9,61.8,29.85,ENE,66,5.0,10.0,78,0.00,CLR,SKC,0.01,687.0,WeatherDisplay:10.37,2013-08-16 22:55:00,
2013-08-16 16:00:00,68.6,61.5,29.84,East,79,8.1,8.1,78,0.00,CLR,SKC,0.01,675.0,WeatherDisplay:10.37,2013-08-16 23:00:00,
2013-08-16 16:05:00,68.9,62.1,29.84,ENE,70,3.0,6.0,79,0.00,CLR,SKC,0.01,659.0,WeatherDisplay:10.37,2013-08-16 23:05:00,
2013-08-16 16:10:00,69.4,62.2,29.84,ENE,74,5.8,5.8,78,0.00,CLR,SKC,0.01,649.0,WeatherDisplay:10.37,2013-08-16 23:10:00,
2013-08-16 16:15:00,69.2,61.7,29.84,ENE,57,6.0,10.0,77,0.00,CLR,SKC,0.01,638.0,WeatherDisplay:10.37,2013-08-16 23:15:00,
2013-08-16 16:20:00,69.7,62.6,29.84,ENE,63,2.0,6.0,78,0.00,CLR,SKC,0.01,622.0,WeatherDisplay:10.37,2013-08-16 23:20:00,
2013-08-16 16:25:00,70.2,62.3,29.84,NE,53,3.0,6.0,76,0.00,CLR,SKC,0.01,612.0,WeatherDisplay:10.37,2013-08-16 23:25:00,
2013-08-16 16:30:00,69.5,62.3,29.84,NE,41,10.4,10.4,78,0.00,CLR,SKC,0.01,601.0,WeatherDisplay:10.37,2013-08-16 23:30:00,
2013-08-16 16:35:00,69.6,62.1,29.84,ENE,66,5.0,8.0,77,0.00,CLR,SKC,0.01,585.0,WeatherDisplay:10.37,2013-08-16 23:35:00,
2013-08-16 16:40:00,69.2,62.0,29.84,NNE,17,8.1,8.1,78,0.00,CLR,SKC,0.01,571.0,WeatherDisplay:10.37,2013-08-16 23:40:00,
2013-08-16 16:45:00,68.5,61.8,29.84,ENE,59,6.0,10.0,79,0.00,CLR,SKC,0.01,513.0,WeatherDisplay:10.37,2013-08-16 23:45:00,
2013-08-16 16:50:00,68.2,61.8,29.84,ENE,71,6.0,10.0,80,0.00,CLR,SKC,0.01,540.0,WeatherDisplay:10.37,2013-08-16 23:50:00,
2013-08-16 16:55:00,68.2,61.4,29.84,East,92,11.5,11.5,79,0.00,CLR,SKC,0.01,527.0,WeatherDisplay:10.37,2013-08-16 23:55:00,
2013-08-16 17:00:00,67.3,61.3,29.84,ESE,121,5.8,5.8,81,0.00,CLR,SKC,0.01,485.0,WeatherDisplay:10.37,2013-08-17 00:00:00,
2013-08-16 17:05:00,65.6,60.3,29.84,East,92,13.8,13.8,83,0.00,CLR,SKC,0.01,497.0,WeatherDisplay:10.37,2013-08-17 00:05:00,
2013-08-16 17:10:00,64.9,60.3,29.84,ESE,105,8.0,14.0,85,0.00,CLR,SKC,0.01,475.0,WeatherDisplay:10.37,2013-08-17 00:10:00,
2013-08-16 17:15:00,64.5,60.2,29.84,SE,130,11.5,11.5,86,0.00,CLR,SKC,0.01,464.0,WeatherDisplay:10.37,2013-08-17 00:15:00,
2013-08-16 17:20:00,64.1,59.9,29.84,ESE,114,10.0,18.0,86,0.00,CLR,SKC,0.01,450.0,WeatherDisplay:10.37,2013-08-17 00:20:00,
2013-08-16 17:25:00,63.7,59.7,29.84,ESE,117,12.0,21.0,87,0.00,FEW,SKC,0.01,410.0,WeatherDisplay:10.37,2013-08-17 00:25:00,
2013-08-16 17:30:00,63.3,59.4,29.84,SE,124,15.0,15.0,87,0.00,FEW,SKC,0.01,418.0,WeatherDisplay:10.37,2013-08-17 00:30:00,
2013-08-16 17:35:00,63.0,59.4,29.84,SE,132,15.0,15.0,88,0.00,FEW,SKC,0.01,404.0,WeatherDisplay:10.37,2013-08-17 00:35:00,
2013-08-16 17:40:00,62.6,59.0,29.84,East,101,20.7,20.7,88,0.00,SCT,SKC,0.01,388.0,WeatherDisplay:10.37,2013-08-17 00:40:00,
2013-08-16 17:45:00,62.5,59.2,29.84,SE,128,16.1,16.1,89,0.00,SCT,SKC,0.01,371.0,WeatherDisplay:10.37,2013-08-17 00:45:00,
2013-08-16 17:50:00,62.4,59.1,29.84,SE,140,18.4,18.4,89,0.00,SCT,SKC,0.01,353.0,WeatherDisplay:10.37,2013-08-17 00:50:00,
2013-08-16 17:55:00,62.4,59.1,29.84,ESE,111,12.7,12.7,89,0.00,SCT,SKC,0.01,338.0,WeatherDisplay:10.37,2013-08-17 00:55:00,
2013-08-16 18:00:00,62.4,59.1,29.84,SE,124,9.0,19.0,89,0.00,SCT,SKC,0.01,323.0,WeatherDisplay:10.37,2013-08-17 01:00:00,
2013-08-16 18:05:00,62.4,59.1,29.84,SE,133,7.0,13.0,89,0.00,BKN,SKC,0.01,308.0,WeatherDisplay:10.37,2013-08-17 01:05:00,
2013-08-16 18:10:00,62.3,59.0,29.84,ESE,122,9.0,17.0,89,0.00,BKN,SKC,0.01,292.0,WeatherDisplay:10.37,2013-08-17 01:10:00,
2013-08-16 18:15:00,61.8,58.5,29.85,ESE,116,15.0,15.0,89,0.00,BKN,SKC,0.01,260.0,WeatherDisplay:10.37,2013-08-17 01:15:00,
2013-08-16 18:20:00,61.7,58.7,29.85,SE,142,15.0,15.0,90,0.00,BKN,SKC,0.01,260.0,WeatherDisplay:10.37,2013-08-17 01:20:00,
2013-08-16 18:25:00,61.6,58.6,29.85,SE,133,11.5,11.5,90,0.00,BKN,SKC,0.01,244.0,WeatherDisplay:10.37,2013-08-17 01:25:00,
2013-08-16 18:30:00,61.5,58.5,29.85,ESE,109,9.2,9.2,90,0.00,BKN,SKC,0.01,227.0,WeatherDisplay:10.37,2013-08-17 01:30:00,
2013-08-16 18:35:00,61.4,58.4,29.85,SE,132,11.5,11.5,90,0.00,BKN,SKC,0.01,211.0,WeatherDisplay:10.37,2013-08-17 01:35:00,
2013-08-16 18:40:00,61.3,58.3,29.85,ESE,120,12.0,12.0,90,0.00,BKN,SKC,0.01,200.0,WeatherDisplay:10.37,2013-08-17 01:40:00,
2013-08-16 18:45:00,61.2,58.2,29.85,SE,124,11.5,11.5,90,0.00,BKN,SKC,0.01,185.0,WeatherDisplay:10.37,2013-08-17 01:45:00,
2013-08-16 18:50:00,61.1,58.5,29.85,ESE,111,15.0,15.0,91,0.00,BKN,SKC,0.01,167.0,WeatherDisplay:10.37,2013-08-17 01:50:00,
2013-08-16 18:55:00,61.0,58.4,29.85,SE,134,11.5,11.5,91,0.00,BKN,SKC,0.01,153.0,WeatherDisplay:10.37,2013-08-17 01:55:00,
2013-08-16 19:00:00,60.9,58.3,29.85,SE,127,12.7,12.7,91,0.00,BKN,SKC,0.01,137.0,WeatherDisplay:10.37,2013-08-17 02:00:00,
2013-08-16 19:05:00,60.8,58.2,29.85,SE,133,11.5,11.5,91,0.00,BKN,SKC,0.01,118.0,WeatherDisplay:10.37,2013-08-17 02:05:00,
2013-08-16 19:10:00,60.8,58.2,29.85,SE,142,15.0,15.0,91,0.00,BKN,SKC,0.01,109.0,WeatherDisplay:10.37,2013-08-17 02:10:00,
2013-08-16 19:15:00,60.7,58.4,29.86,SE,131,11.5,11.5,92,0.00,BKN,SKC,0.01,91.0,WeatherDisplay:10.37,2013-08-17 02:15:00,
2013-08-16 19:20:00,60.7,58.4,29.86,ESE,123,8.1,8.1,92,0.00,OVC,SKC,0.01,32.0,WeatherDisplay:10.37,2013-08-17 02:20:00,
2013-08-16 19:25:00,60.8,58.5,29.86,ESE,102,13.8,13.8,92,0.00,OVC,SKC,0.01,28.0,WeatherDisplay:10.37,2013-08-17 02:25:00,
2013-08-16 19:30:00,60.7,58.4,29.86,SE,130,9.2,9.2,92,0.00,OVC,SKC,0.01,18.0,WeatherDisplay:10.37,2013-08-17 02:30:00,
2013-08-16 19:35:00,60.6,58.3,29.86,SSE,163,9.2,9.2,92,0.00,OVC,SKC,0.01,16.0,WeatherDisplay:10.37,2013-08-17 02:35:00,
2013-08-16 19:40:00,60.4,58.1,29.86,ESE,121,13.8,13.8,92,0.00,OVC,SKC,0.01,14.0,WeatherDisplay:10.37,2013-08-17 02:40:00,
2013-08-16 19:45:00,60.3,58.0,29.87,SE,129,11.5,11.5,92,0.00,OVC,SKC,0.01,11.0,WeatherDisplay:10.37,2013-08-17 02:45:00,
2013-08-16 19:50:00,60.2,57.9,29.87,SE,127,9.2,9.2,92,0.00,OVC,SKC,0.01,9.0,WeatherDisplay:10.37,2013-08-17 02:50:00,
2013-08-16 19:55:00,60.0,57.7,29.87,SE,132,11.5,11.5,92,0.00,OVC,SKC,0.01,5.0,WeatherDisplay:10.37,2013-08-17 02:55:00,
2013-08-16 20:00:00,59.9,57.9,29.87,ESE,105,11.5,11.5,93,0.00,OVC,SKC,0.01,0.0,WeatherDisplay:10.37,2013-08-17 03:00:00,
2013-08-16 20:05:00,59.8,57.8,29.87,SE,132,11.5,11.5,93,0.00,,SKC,0.01,0.0,WeatherDisplay:10.37,2013-08-17 03:05:00,
2013-08-16 20:10:00,59.8,57.8,29.87,East,101,9.0,9.0,93,0.00,,SKC,0.01,0.0,WeatherDisplay:10.37,2013-08-17 03:10:00,
2013-08-16 20:15:00,59.7,57.7,29.87,East,94,9.2,9.2,93,0.00,,SKC,0.01,0.0,WeatherDisplay:10.37,2013-08-17 03:15:00,
2013-08-16 20:20:00,59.7,57.7,29.87,ESE,114,6.9,6.9,93,0.00,,SKC,0.01,0.0,WeatherDisplay:10.37,2013-08-17 03:20:00,
2013-08-16 20:25:00,59.5,57.5,29.87,SE,130,12.0,12.0,93,0.00,,SKC,0.01,0.0,WeatherDisplay:10.37,2013-08-17 03:25:00,
2013-08-16 20:30:00,59.5,57.5,29.88,SE,132,12.7,12.7,93,0.00,,SKC,0.01,0.0,WeatherDisplay:10.37,2013-08-17 03:30:00,
2013-08-16 20:35:00,59.4,57.4,29.88,East,97,12.7,12.7,93,0.00,,SKC,0.01,0.0,WeatherDisplay:10.37,2013-08-17 03:35:00,
2013-08-16 20:40:00,59.4,57.4,29.88,ESE,103,11.5,11.5,93,0.00,,SKC,0.01,0.0,WeatherDisplay:10.37,2013-08-17 03:40:00,
2013-08-16 20:45:00,59.3,57.3,29.88,ESE,121,11.5,11.5,93,0.00,,SKC,0.01,0.0,WeatherDisplay:10.37,2013-08-17 03:45:00,
2013-08-16 20:50:00,59.3,57.3,29.88,ESE,102,9.2,9.2,93,0.00,,SKC,0.01,0.0,WeatherDisplay:10.37,2013-08-17 03:50:00,
2013-08-16 20:55:00,59.4,57.4,29.88,SE,128,9.2,9.2,93,0.00,,SKC,0.01,0.0,WeatherDisplay:10.37,2013-08-17 03:55:00,
2013-08-16 21:00:00,59.3,57.3,29.89,ESE,107,8.0,8.0,93,0.00,,SKC,0.01,0.0,WeatherDisplay:10.37,2013-08-17 04:00:00,
2013-08-16 21:01:00,59.3,57.3,29.89,SE,126,7.0,7.0,93,0.00,,SKC,0.01,0.0,WeatherDisplay:10.37,2013-08-17 04:01:00,
2013-08-16 21:06:00,59.3,57.3,29.89,ESE,107,6.9,6.9,93,0.00,,SKC,0.01,0.0,WeatherDisplay:10.37,2013-08-17 04:06:00,
2013-08-16 21:11:00,59.3,57.3,29.89,ESE,121,6.9,6.9,93,0.00,,SKC,0.01,0.0,WeatherDisplay:10.37,2013-08-17 04:11:00,
2013-08-16 21:16:00,59.3,57.3,29.89,SE,126,9.2,9.2,93,0.00,,SKC,0.01,0.0,WeatherDisplay:10.37,2013-08-17 04:16:00,
2013-08-16 21:21:00,59.3,57.3,29.89,ESE,103,6.9,6.9,93,0.00,,SKC,0.01,0.0,WeatherDisplay:10.37,2013-08-17 04:21:00,
2013-08-16 21:26:00,59.3,57.3,29.89,ESE,112,5.8,5.8,93,0.00,,SKC,0.01,0.0,WeatherDisplay:10.37,2013-08-17 04:26:00,
2013-08-16 21:31:00,59.3,57.3,29.89,SE,126,6.0,6.0,93,0.00,,SKC,0.01,0.0,WeatherDisplay:10.37,2013-08-17 04:31:00,
2013-08-16 21:36:00,59.2,57.2,29.89,ESE,113,6.9,6.9,93,0.00,,SKC,0.01,0.0,WeatherDisplay:10.37,2013-08-17 04:36:00,
2013-08-16 21:41:00,59.2,57.2,29.89,SSE,152,4.0,4.0,93,0.00,,SKC,0.01,0.0,WeatherDisplay:10.37,2013-08-17 04:41:00,
2013-08-16 21:46:00,59.0,57.0,29.90,SE,134,8.1,8.1,93,0.00,,SKC,0.01,0.0,WeatherDisplay:10.37,2013-08-17 04:46:00,
2013-08-16 21:51:00,58.9,56.9,29.90,ESE,119,6.9,6.9,93,0.00,,SKC,0.01,0.0,WeatherDisplay:10.37,2013-08-17 04:51:00,
2013-08-16 21:56:00,58.8,56.8,29.90,East,98,8.1,8.1,93,0.00,,SKC,0.01,0.0,WeatherDisplay:10.37,2013-08-17 04:56:00,
2013-08-16 22:01:00,58.8,56.8,29.90,SE,130,7.0,7.0,93,0.00,,SKC,0.01,0.0,WeatherDisplay:10.37,2013-08-17 05:01:00,
2013-08-16 22:06:00,58.7,57.0,29.90,ESE,103,4.6,4.6,94,0.00,,SKC,0.01,0.0,WeatherDisplay:10.37,2013-08-17 05:06:00,
2013-08-16 22:11:00,58.7,57.0,29.90,ESE,119,2.3,2.3,94,0.00,,SKC,0.01,0.0,WeatherDisplay:10.37,2013-08-17 05:11:00,
2013-08-16 22:16:00,58.7,57.0,29.90,ESE,120,2.0,2.0,94,0.00,,SKC,0.01,0.0,WeatherDisplay:10.37,2013-08-17 05:16:00,
2013-08-16 22:21:00,58.7,57.0,29.90,ESE,120,1.2,0.0,94,0.00,,SKC,0.01,0.0,WeatherDisplay:10.37,2013-08-17 05:21:00,
2013-08-16 22:26:00,58.7,57.0,29.90,ESE,103,0.0,0.1,94,0.00,,SKC,0.01,0.0,WeatherDisplay:10.37,2013-08-17 05:26:00,
2013-08-16 22:31:00,58.7,57.0,29.90,ESE,103,1.2,0.0,94,0.00,,SKC,0.01,0.0,WeatherDisplay:10.37,2013-08-17 05:31:00,
2013-08-16 22:36:00,58.7,57.0,29.90,ESE,103,0.0,0.0,94,0.00,,SKC,0.01,0.0,WeatherDisplay:10.37,2013-08-17 05:36:00,
2013-08-16 22:41:00,58.8,57.1,29.90,ESE,103,0.0,0.0,94,0.00,,SKC,0.01,0.0,WeatherDisplay:10.37,2013-08-17 05:41:00,
2013-08-16 22:46:00,58.7,57.0,29.90,ESE,103,1.2,0.0,94,0.00,,SKC,0.01,0.0,WeatherDisplay:10.37,2013-08-17 05:46:00,
2013-08-16 22:51:00,58.8,57.1,29.90,ESE,103,0.0,0.0,94,0.00,,SKC,0.01,0.0,WeatherDisplay:10.37,2013-08-17 05:51:00,
2013-08-16 22:56:00,58.8,57.1,29.90,ESE,103,0.0,0.0,94,0.00,,SKC,0.01,0.0,WeatherDisplay:10.37,2013-08-17 05:56:00,
2013-08-16 23:01:00,58.8,57.1,29.90,ESE,103,0.0,0.0,94,0.00,,SKC,0.01,0.0,WeatherDisplay:10.37,2013-08-17 06:01:00,
2013-08-16 23:06:00,58.8,57.1,29.90,ESE,103,0.0,0.0,94,0.00,,SKC,0.01,0.0,WeatherDisplay:10.37,2013-08-17 06:06:00,
2013-08-16 23:11:00,58.8,57.1,29.90,ESE,103,0.0,0.0,94,0.00,,SKC,0.01,0.0,WeatherDisplay:10.37,2013-08-17 06:11:00,
2013-08-16 23:16:00,58.7,57.0,29.90,ESE,103,0.0,0.0,94,0.00,,SKC,0.01,0.0,WeatherDisplay:10.37,2013-08-17 06:16:00,
2013-08-16 23:21:00,58.7,57.0,29.90,ESE,103,1.2,0.0,94,0.00,,SKC,0.01,0.0,WeatherDisplay:10.37,2013-08-17 06:21:00,
2013-08-16 23:26:00,58.9,57.2,29.90,ESE,103,2.3,2.3,94,0.00,,SKC,0.01,0.0,WeatherDisplay:10.37,2013-08-17 06:26:00,
2013-08-16 23:31:00,58.7,57.0,29.90,ESE,103,1.2,1.2,94,0.00,,SKC,0.01,0.0,WeatherDisplay:10.37,2013-08-17 06:31:00,
2013-08-16 23:36:00,58.7,57.0,29.90,ESE,103,0.0,0.0,94,0.00,,SKC,0.01,0.0,WeatherDisplay:10.37,2013-08-17 06:36:00,
2013-08-16 23:41:00,58.8,57.1,29.90,SSW,196,3.5,3.5,94,0.00,,SKC,0.01,0.0,WeatherDisplay:10.37,2013-08-17 06:41:00,
2013-08-16 23:46:00,58.8,57.1,29.91,WSW,256,1.2,1.2,94,0.00,,SKC,0.01,0.0,WeatherDisplay:10.37,2013-08-17 06:46:00,
2013-08-16 23:51:00,58.8,57.1,29.91,WSW,256,3.5,3.5,94,0.00,,SKC,0.01,0.0,WeatherDisplay:10.37,2013-08-17 06:51:00,
2013-08-16 23:56:00,58.7,57.0,29.91,WSW,256,2.3,2.3,94,0.00,,SKC,0.01,0.0,WeatherDisplay:10.37,2013-08-17 06:56:00,